{"data":{"norad_id":68049,"epoch":"2026-05-25T03:03:20.683872Z","epoch_age_seconds":61056,"freshness":"FRESH","line1":"1 68049U 26041K   26145.12732273  .00043633  00000+0  11234-2 0  9996","line2":"2 68049  53.1587  53.2556 0001162 107.0454 253.0678 15.38825278 13111","mean_motion":15.38825278,"eccentricity":0.0001162,"inclination_deg":53.1587,"raan_deg":53.2556,"arg_perigee_deg":107.0454,"mean_anomaly_deg":253.0678,"bstar":0.0011234,"rev_number":1311,"period_min":93.577875317434,"perigee_km":448.78853083646,"apogee_km":450.37529271155,"semimajor_km":6827.718911774,"source":"CELESTRAK","updated_at":"2026-05-25T13:38:21.812051Z"}}